When you browse on this site, cookies collect data to enhance your experience and personalize the content and advertising you see.
Visit our Privacy Policy to learn more. By continuing to use the site, you agree to this use of cookies and data.
  • In Hungary
  • List of Countries
  • For 7 days
  • Water Temperature
  • Weather Map
  • News
  • Weather Widgets
  • user-avatar
    Login

    Hourly Weather Exeter

    Today, 2 June, Tuesday

    Time Temperature Precipitation Wind Pressure Humidity
    00:00 +14°C° 0 mm 2 mps 759 mmHg 92%
    01:00 +14°C° 0 mm 2 mps 759 mmHg 93%
    02:00 +13°C° 0 mm 2 mps 759 mmHg 93%
    03:00 +13°C° 0 mm 2 mps 758 mmHg 94%
    04:00 +14°C° 0 mm 2 mps 758 mmHg 93%
    05:00 +14°C° 0 mm 2 mps 758 mmHg 92%
    06:00 +15°C° 0 mm 2 mps 758 mmHg 91%
    07:00 +16°C° 0 mm 2 mps 758 mmHg 86%
    08:00 +18°C° 0 mm 2 mps 758 mmHg 80%
    09:00 +19°C° 0 mm 2 mps 758 mmHg 74%
    10:00 +20°C° 0 mm 2 mps 758 mmHg 71%
    11:00 +21°C° 0 mm 2 mps 758 mmHg 68%
    12:00 +21°C° 0 mm 2 mps 758 mmHg 65%
    13:00 +21°C° 0 mm 2 mps 757 mmHg 65%
    14:00 +21°C° 0 mm 2 mps 757 mmHg 65%
    15:00 +21°C° 0 mm 2 mps 756 mmHg 65%
    16:00 +21°C° 0 mm 2 mps 756 mmHg 69%
    17:00 +20°C° 0 mm 2 mps 756 mmHg 72%
    18:00 +20°C° 0 mm 2 mps 755 mmHg 76%
    19:00 +18°C° 0 mm 2 mps 755 mmHg 80%
    20:00 +16°C° 0 mm 2 mps 755 mmHg 85%
    21:00 +14°C° 0 mm 2 mps 755 mmHg 89%
    22:00 +14°C° 0 mm 2 mps 754 mmHg 88%
    23:00 +14°C° 0 mm 2 mps 754 mmHg 88%

    Tomorrow, 3 June, Wednesday

    Time Temperature Precipitation Wind Pressure Humidity
    00:00 +13°C° 0 mm 2 mps 753 mmHg 87%
    01:00 +13°C° 0 mm 2 mps 752 mmHg 87%
    02:00 +13°C° 0 mm 2 mps 752 mmHg 86%
    03:00 +12°C° 0 mm 2 mps 751 mmHg 86%
    04:00 +13°C° 0.2 mm 2 mps 751 mmHg 87%
    05:00 +13°C° 0.2 mm 2 mps 750 mmHg 88%
    06:00 +14°C° 0.2 mm 2 mps 750 mmHg 89%
    07:00 +14°C° 0.6 mm 2 mps 750 mmHg 90%
    08:00 +14°C° 0.6 mm 2 mps 749 mmHg 92%
    09:00 +14°C° 0.6 mm 2 mps 749 mmHg 93%
    10:00 +13°C° 1.6 mm 3 mps 749 mmHg 93%
    11:00 +13°C° 1.6 mm 3 mps 749 mmHg 94%
    12:00 +13°C° 1.6 mm 3 mps 748 mmHg 94%
    13:00 +13°C° 0.8 mm 3 mps 748 mmHg 95%
    14:00 +13°C° 0.8 mm 4 mps 748 mmHg 95%
    15:00 +13°C° 0.8 mm 4 mps 748 mmHg 95%
    16:00 +13°C° 0.2 mm 5 mps 748 mmHg 94%
    17:00 +11°C° 0.2 mm 6 mps 748 mmHg 94%
    18:00 +11°C° 0.2 mm 7 mps 748 mmHg 93%
    19:00 +10°C° 0 mm 6 mps 748 mmHg 93%
    20:00 +10°C° 0 mm 6 mps 749 mmHg 93%
    21:00 +10°C° 0 mm 5 mps 749 mmHg 93%
    22:00 +9°C° 0 mm 5 mps 749 mmHg 93%
    23:00 +10°C° 0 mm 4 mps 749 mmHg 93%

    Day after tomorrow, 4 June, Thursday

    Time Temperature Precipitation Wind Pressure Humidity
    00:00 +10°C° 0 mm 4 mps 749 mmHg 93%
    01:00 +8°C° 0 mm 4 mps 749 mmHg 93%
    02:00 +8°C° 0 mm 4 mps 748 mmHg 94%
    03:00 +8°C° 0 mm 4 mps 748 mmHg 94%
    04:00 +8°C° 0 mm 4 mps 748 mmHg 93%
    05:00 +10°C° 0 mm 4 mps 748 mmHg 93%
    06:00 +10°C° 0 mm 4 mps 748 mmHg 92%
    07:00 +11°C° 0 mm 4 mps 748 mmHg 86%
    08:00 +12°C° 0 mm 4 mps 748 mmHg 81%
    09:00 +13°C° 0 mm 4 mps 748 mmHg 75%
    10:00 +13°C° 0.1 mm 5 mps 748 mmHg 74%
    11:00 +13°C° 0.1 mm 5 mps 748 mmHg 74%
    12:00 +14°C° 0.1 mm 6 mps 748 mmHg 73%
    13:00 +14°C° 0.1 mm 6 mps 748 mmHg 71%
    14:00 +14°C° 0.1 mm 7 mps 747 mmHg 69%
    15:00 +13°C° 0.1 mm 8 mps 747 mmHg 68%
    16:00 +12°C° 0 mm 7 mps 747 mmHg 70%
    17:00 +12°C° 0 mm 7 mps 747 mmHg 73%
    18:00 +11°C° 0 mm 7 mps 746 mmHg 75%
    19:00 +10°C° 0 mm 6 mps 746 mmHg 80%
    20:00 +10°C° 0 mm 6 mps 746 mmHg 85%
    21:00 +9°C° 0 mm 5 mps 746 mmHg 89%
    22:00 +9°C° 0 mm 5 mps 746 mmHg 90%
    23:00 +8°C° 0 mm 4 mps 746 mmHg 92%

    5 June, Friday

    Time Temperature Precipitation Wind Pressure Humidity
    00:00 +8°C° 0 mm 4 mps 746 mmHg 93%
    01:00 +8°C° 0 mm 4 mps 746 mmHg 93%
    02:00 +8°C° 0 mm 4 mps 746 mmHg 93%
    03:00 +7°C° 0 mm 4 mps 746 mmHg 92%
    04:00 +8°C° 0 mm 4 mps 746 mmHg 91%
    05:00 +8°C° 0 mm 4 mps 746 mmHg 89%
    06:00 +10°C° 0 mm 4 mps 746 mmHg 88%
    07:00 +10°C° 0 mm 5 mps 746 mmHg 82%
    08:00 +12°C° 0 mm 5 mps 747 mmHg 77%
    09:00 +13°C° 0 mm 5 mps 747 mmHg 72%
    10:00 +13°C° 0 mm 6 mps 747 mmHg 69%
    11:00 +14°C° 0 mm 6 mps 747 mmHg 65%
    12:00 +15°C° 0 mm 6 mps 747 mmHg 62%
    13:00 +15°C° 0 mm 6 mps 747 mmHg 63%
    14:00 +15°C° 0 mm 6 mps 746 mmHg 63%
    15:00 +14°C° 0 mm 7 mps 746 mmHg 63%
    16:00 +14°C° 0 mm 7 mps 746 mmHg 68%
    17:00 +14°C° 0 mm 7 mps 746 mmHg 74%
    18:00 +13°C° 0 mm 6 mps 745 mmHg 79%
    19:00 +13°C° 0.1 mm 6 mps 745 mmHg 82%
    20:00 +13°C° 0.1 mm 6 mps 745 mmHg 86%
    21:00 +13°C° 0.1 mm 6 mps 745 mmHg 89%
    22:00 +12°C° 0.1 mm 5 mps 745 mmHg 90%
    23:00 +10°C° 0.1 mm 5 mps 745 mmHg 91%

    6 June, Saturday

    Time Temperature Precipitation Wind Pressure Humidity
    00:00 +9°C° 0.1 mm 5 mps 745 mmHg 92%
    01:00 +9°C° 0 mm 5 mps 745 mmHg 92%
    02:00 +9°C° 0 mm 5 mps 745 mmHg 92%
    03:00 +8°C° 0 mm 4 mps 745 mmHg 92%
    04:00 +8°C° 0 mm 5 mps 745 mmHg 92%
    05:00 +9°C° 0 mm 5 mps 746 mmHg 91%
    06:00 +9°C° 0 mm 5 mps 746 mmHg 91%
    07:00 +10°C° 0.1 mm 5 mps 746 mmHg 85%
    08:00 +11°C° 0.1 mm 6 mps 746 mmHg 80%
    09:00 +11°C° 0.1 mm 6 mps 747 mmHg 74%
    10:00 +13°C° 0 mm 6 mps 747 mmHg 69%
    11:00 +14°C° 0 mm 6 mps 747 mmHg 64%
    12:00 +14°C° 0 mm 6 mps 747 mmHg 58%
    13:00 +14°C° 0 mm 6 mps 748 mmHg 58%
    14:00 +14°C° 0 mm 7 mps 748 mmHg 57%
    15:00 +12°C° 0 mm 7 mps 748 mmHg 56%
    16:00 +12°C° 0 mm 7 mps 748 mmHg 59%
    17:00 +11°C° 0 mm 7 mps 748 mmHg 61%
    18:00 +11°C° 0 mm 6 mps 748 mmHg 63%
    19:00 +9°C° 0 mm 5 mps 748 mmHg 70%
    20:00 +8°C° 0 mm 4 mps 749 mmHg 77%
    21:00 +6°C° 0 mm 4 mps 749 mmHg 84%
    22:00 +5°C° 0 mm 3 mps 749 mmHg 85%
    23:00 +5°C° 0 mm 3 mps 749 mmHg 86%

    7 June, Sunday

    Time Temperature Precipitation Wind Pressure Humidity
    00:00 +5°C° 0 mm 2 mps 749 mmHg 88%
    01:00 +4°C° 0 mm 3 mps 749 mmHg 87%
    02:00 +4°C° 0 mm 3 mps 749 mmHg 87%
    03:00 +4°C° 0 mm 3 mps 750 mmHg 87%
    04:00 +5°C° 0 mm 4 mps 750 mmHg 84%
    05:00 +5°C° 0 mm 4 mps 750 mmHg 81%
    06:00 +6°C° 0 mm 5 mps 750 mmHg 78%
    07:00 +7°C° 0 mm 6 mps 751 mmHg 72%
    08:00 +9°C° 0 mm 7 mps 751 mmHg 65%
    09:00 +10°C° 0 mm 8 mps 751 mmHg 59%
    10:00 +11°C° 0 mm 7 mps 752 mmHg 57%
    11:00 +11°C° 0 mm 7 mps 752 mmHg 56%
    12:00 +12°C° 0 mm 7 mps 752 mmHg 54%
    13:00 +12°C° 0 mm 7 mps 752 mmHg 54%
    14:00 +12°C° 0 mm 7 mps 752 mmHg 55%
    15:00 +12°C° 0 mm 7 mps 752 mmHg 55%
    16:00 +11°C° 0 mm 7 mps 752 mmHg 57%
    17:00 +11°C° 0 mm 6 mps 752 mmHg 59%
    18:00 +10°C° 0 mm 6 mps 752 mmHg 61%
    19:00 +9°C° 0 mm 5 mps 752 mmHg 70%
    20:00 +8°C° 0 mm 4 mps 752 mmHg 79%
    21:00 +6°C° 0 mm 4 mps 753 mmHg 88%
    22:00 +6°C° 0.1 mm 4 mps 753 mmHg 89%
    23:00 +6°C° 0.1 mm 4 mps 752 mmHg 90%
    Show more